GW0913 Weather Reports


time (UTC)temp
C
wind
direction
speed
KPH
gust
KPH
rain 1hr
cm
rain 24hr
cm
rain mn
cm
humidity
%
barometer
mb
20260905173101 31 171 4.8 14.5 0.00 0.00 0.00 65 1013.9
20260905172552 31 145 1.6 14.5 0.00 0.00 0.00 65 1014.0
20260905172052 31 206 6.4 14.5 0.00 0.00 0.00 62 1014.0
20260905171605 31 224 4.8 11.3 0.00 0.00 0.00 62 1014.0
20260905171053 31 191 4.8 11.3 0.00 0.00 0.00 65 1014.2
20260905170553 31 181 3.2 11.3 0.00 0.00 0.00 64 1014.3
20260905170100 31 167 4.8 11.3 0.00 0.00 0.00 66 1014.5
20260905165552 31 190 3.2 12.9 0.00 0.00 0.00 64 1014.6
20260905165052 31 221 4.8 12.9 0.00 0.00 0.00 66 1014.7
20260905164605 31 214 4.8 11.3 0.00 0.00 0.00 65 1014.9
20260905164053 31 169 3.2 11.3 0.00 0.00 0.00 68 1014.8
20260905163552 30 0 3.2 11.3 0.00 0.00 0.00 68 1014.8
20260905163056 30 191 3.2 9.7 0.00 0.00 0.00 65 1014.8
20260905162553 30 138 3.2 11.3 0.00 0.00 0.00 65 1014.7
20260905162053 30 360 3.2 14.5 0.00 0.00 0.00 66 1014.7
20260905161600 30 122 4.8 14.5 0.00 0.00 0.00 67 1014.7
20260905161053 29 176 4.8 14.5 0.00 0.00 0.00 68 1014.7
20260905160555 29 153 4.8 14.5 0.00 0.00 0.00 68 1014.6
20260905160122 29 169 6.4 12.9 0.00 0.00 0.00 67 1014.8
20260905155553 29 198 4.8 11.3 0.00 0.00 0.00 68 1014.9
20260905155052 28 159 3.2 16.1 0.00 0.00 0.00 67 1015.1
20260905154601 28 222 3.2 16.1 0.00 0.00 0.00 68 1015.3
20260905154054 28 195 3.2 9.7 0.00 0.00 0.00 68 1015.2
20260905153552 28 119 1.6 12.9 0.00 0.00 0.00 70 1015.1
20260905153112 28 0 1.6 12.9 0.00 0.00 0.00 69 1015.1
20260905152553 27 265 1.6 12.9 0.00 0.00 0.00 72 1015.1
20260905152056 27 181 3.2 14.5 0.00 0.00 0.00 70 1015.1
20260905151609 27 143 4.8 14.5 0.00 0.00 0.00 71 1015.0
20260905151052 27 179 4.8 12.9 0.00 0.00 0.00 71 1015.0
20260905150552 27 158 3.2 14.5 0.00 0.00 0.00 71 1015.0
20260905150057 27 203 6.4 14.5 0.00 0.00 0.00 71 1015.0
20260905145552 27 171 8.0 14.5 0.00 0.00 0.00 72 1015.1
20260905145055 26 148 4.8 12.9 0.00 0.00 0.00 76 1015.2
20260905144556 26 150 3.2 12.9 0.00 0.00 0.00 75 1015.3
20260905144052 26 184 4.8 12.9 0.00 0.00 0.00 75 1015.3
20260905143552 26 150 1.6 12.9 0.00 0.00 0.00 75 1015.4
20260905143107 26 105 6.4 12.9 0.00 0.00 0.00 76 1015.6
20260905142556 26 122 1.6 14.5 0.00 0.00 0.00 77 1015.5
20260905142054 26 243 6.4 17.7 0.00 0.00 0.00 76 1015.3
20260905141600 26 144 6.4 17.7 0.00 0.00 0.00 75 1015.3
20260905141052 26 186 3.2 9.7 0.00 0.00 0.00 76 1015.3
20260905140554 26 230 3.2 11.3 0.00 0.00 0.00 78 1015.3
20260905140106 25 214 0.0 11.3 0.00 0.00 0.00 79 1015.5
20260905135554 25 113 4.8 24.1 0.00 0.00 0.00 78 1015.5
20260905135054 25 187 4.8 24.1 0.00 0.00 0.00 78 1015.4
20260905134605 25 137 1.6 16.1 0.00 0.00 0.00 80 1015.3
20260905134053 25 0 1.6 16.1 0.00 0.00 0.00 81 1015.4
20260905133553 25 0 4.8 16.1 0.00 0.00 0.00 81 1015.4
20260905133107 25 0 3.2 19.3 0.00 0.00 0.00 84 1015.3
20260905132553 25 104 4.8 19.3 0.00 0.00 0.00 84 1015.2
20260905132055 25 162 6.4 19.3 0.00 0.00 0.00 84 1015.3
20260905131610 25 81 6.4 19.3 0.00 0.00 0.00 84 1015.5
20260905131053 25 156 6.4 22.5 0.00 0.00 0.00 84 1015.7
20260905130553 25 157 6.4 22.5 0.00 0.00 0.00 84 1015.5
20260905130115 25 0 4.8 12.9 0.00 0.00 0.00 86 1015.4
20260905125553 25 122 3.2 20.9 0.00 0.00 0.00 89 1015.3
20260905125053 24 6 6.4 20.9 0.00 0.00 0.00 90 1015.3
20260905124602 24 111 6.4 14.5 0.00 0.00 0.00 93 1015.3
20260905124054 23 46 3.2 12.9 0.00 0.00 0.00 94 1015.4
20260905123554 23 127 1.6 12.9 0.00 0.00 0.00 95 1014.9
20260905123104 23 72 3.2 19.3 0.00 0.00 0.00 96 1015.2
20260905122553 23 64 8.0 19.3 0.00 0.00 0.00 97 1015.0
20260905122054 22 80 4.8 16.1 0.00 0.00 0.00 98 1015.1
20260905121602 22 0 0.0 0.0 0.00 0.00 0.00 97 1014.4
20260905121053 22 0 0.0 0.0 0.00 0.00 0.00 97 1014.2
20260905120555 22 0 0.0 0.0 0.00 0.00 0.00 97 1014.2
20260905120114 22 0 0.0 0.0 0.00 0.00 0.00 97 1014.1
20260905115557 22 0 0.0 1.6 0.00 0.00 0.00 97 1014.1
20260905115054 22 0 0.0 1.6 0.00 0.00 0.00 97 1014.0
20260905114604 22 0 0.0 0.0 0.00 0.00 0.00 96 1013.9
20260905114053 22 0 0.0 0.0 0.00 0.00 0.00 96 1013.9
20260905113554 22 0 0.0 0.0 0.00 0.00 0.00 96 1013.9
20260905113106 22 0 0.0 0.0 0.00 0.00 0.00 96 1013.9
20260905112558 22 0 0.0 0.0 0.00 0.00 0.00 96 1013.8
20260905112053 22 0 0.0 0.0 0.00 0.00 0.00 97 1013.6
20260905111612 22 0 0.0 0.0 0.00 0.00 0.00 97 1013.7
20260905111053 22 0 0.0 1.6 0.00 0.00 0.00 96 1013.5
20260905110558 22 0 0.0 1.6 0.00 0.00 0.00 96 1013.5
20260905110100 22 0 0.0 1.6 0.00 0.00 0.00 96 1013.4
20260905105553 23 0 0.0 1.6 0.00 0.00 0.00 96 1013.5
20260905105052 23 0 0.0 0.0 0.00 0.00 0.00 96 1013.5
20260905104558 23 0 0.0 0.0 0.00 0.00 0.00 96 1013.5
20260905104052 23 0 0.0 1.6 0.00 0.00 0.00 96 1013.6
20260905103552 23 0 0.0 1.6 0.00 0.00 0.00 96 1013.6
20260905103057 23 0 0.0 0.0 0.00 0.00 0.00 96 1013.7
20260905102554 23 0 0.0 1.6 0.00 0.00 0.00 96 1013.7
20260905102053 23 0 0.0 1.6 0.00 0.00 0.00 96 1013.7
20260905101606 23 0 0.0 1.6 0.00 0.00 0.00 96 1013.7
20260905101053 23 0 0.0 0.0 0.00 0.00 0.00 96 1013.7
20260905100553 23 0 0.0 0.0 0.00 0.00 0.00 96 1013.8
20260905100057 23 0 0.0 0.0 0.00 0.00 0.00 96 1013.6
20260905095552 23 0 0.0 0.0 0.00 0.00 0.00 96 1013.6
20260905095055 23 0 0.0 0.0 0.00 0.00 0.00 96 1013.6
20260905094556 23 0 0.0 0.0 0.00 0.00 0.00 97 1013.5
20260905094052 23 0 0.0 0.0 0.00 0.00 0.00 96 1013.5
20260905093552 23 0 0.0 1.6 0.00 0.00 0.00 96 1013.4
20260905093101 23 0 0.0 1.6 0.00 0.00 0.00 96 1013.4
20260905092555 23 0 0.0 1.6 0.00 0.00 0.00 96 1013.4
20260905092054 23 0 0.0 1.6 0.00 0.00 0.00 96 1013.4
20260905091558 23 0 0.0 0.0 0.00 0.00 0.00 96 1013.4
20260905091052 23 0 0.0 1.6 0.00 0.00 0.00 96 1013.4
20260905090552 23 0 0.0 1.6 0.00 0.00 0.00 96 1013.4
20260905090056 23 0 0.0 0.0 0.00 0.00 0.00 96 1013.3
20260905085553 23 0 0.0 1.6 0.00 0.00 0.00 96 1013.3
20260905085052 23 0 0.0 1.6 0.00 0.00 0.00 96 1013.2
20260905084616 23 271 0.0 1.6 0.00 0.00 0.00 96 1013.2
20260905084052 23 0 0.0 1.6 0.00 0.00 0.00 97 1013.1
20260905083553 23 0 0.0 0.0 0.00 0.00 0.00 97 1013.0
20260905083058 23 0 0.0 0.0 0.00 0.00 0.00 97 1013.0
20260905082554 23 0 0.0 1.6 0.00 0.00 0.00 97 1013.0
20260905082053 23 0 0.0 1.6 0.00 0.00 0.00 97 1012.9
20260905081605 23 0 0.0 1.6 0.00 0.00 0.00 96 1012.9
20260905081052 23 0 0.0 0.0 0.00 0.00 0.00 96 1012.9
20260905080552 23 0 0.0 0.0 0.00 0.00 0.00 96 1012.9
20260905080057 23 0 0.0 0.0 0.00 0.00 0.00 96 1012.9
20260905075557 23 0 0.0 0.0 0.00 0.00 0.00 96 1012.9
20260905075054 23 0 0.0 0.0 0.00 0.00 0.00 96 1012.9
20260905074606 23 0 0.0 1.6 0.00 0.00 0.00 96 1012.8
20260905074053 23 0 0.0 1.6 0.00 0.00 0.00 96 1012.8
20260905073553 23 271 0.0 0.0 0.00 0.00 0.00 96 1012.8
20260905073105 23 0 0.0 0.0 0.00 0.00 0.00 96 1012.8
20260905072553 23 0 0.0 1.6 0.00 0.00 0.00 96 1012.9
20260905072054 23 0 0.0 1.6 0.00 0.00 0.00 96 1012.9
20260905071608 23 0 0.0 1.6 0.00 0.00 0.00 96 1013.1
20260905071056 23 0 0.0 0.0 0.00 0.00 0.00 95 1013.1
20260905070553 23 0 0.0 0.0 0.00 0.00 0.00 96 1013.2
20260905070106 23 0 0.0 0.0 0.00 0.00 0.00 96 1013.3
20260905065553 23 0 0.0 0.0 0.00 0.00 0.00 95 1013.4
20260905065057 23 0 0.0 0.0 0.00 0.00 0.00 95 1013.5
20260905064602 23 0 0.0 1.6 0.00 0.00 0.00 95 1013.5
20260905064055 23 0 0.0 1.6 0.00 0.00 0.00 95 1013.5
20260905063553 23 0 0.0 0.0 0.00 0.00 0.00 95 1013.5
20260905063104 23 0 0.0 0.0 0.00 0.00 0.00 95 1013.6
20260905062556 23 0 0.0 0.0 0.00 0.00 0.00 95 1013.6
20260905062055 23 0 0.0 0.0 0.00 0.00 0.00 95 1013.7
20260905061611 23 0 0.0 0.0 0.00 0.00 0.00 95 1013.7
20260905061053 24 0 0.0 1.6 0.00 0.00 0.00 95 1013.8
20260905060556 24 0 0.0 1.6 0.00 0.00 0.00 95 1013.8
20260905060105 24 0 0.0 1.6 0.00 0.00 0.00 94 1013.8
20260905055554 24 0 0.0 0.0 0.00 0.00 0.00 94 1013.8
20260905055055 24 0 0.0 1.6 0.00 0.00 0.00 94 1013.8
20260905054603 24 0 0.0 3.2 0.00 0.00 0.00 94 1013.9
20260905054053 24 0 0.0 3.2 0.00 0.00 0.00 94 1013.9
20260905053553 24 271 0.0 3.2 0.00 0.00 0.00 94 1014.0
20260905053141 24 271 0.0 1.6 0.00 0.00 0.00 95 1014.0
20260905052554 24 0 0.0 0.0 0.00 0.00 0.00 95 1013.9
20260905052053 24 0 0.0 1.6 0.00 0.00 0.00 94 1013.9
20260905051601 24 0 0.0 3.2 0.00 0.00 0.00 94 1013.9
20260905051052 24 271 0.0 3.2 0.00 0.00 0.00 94 1014.0
20260905050552 24 271 1.6 3.2 0.00 0.00 0.00 94 1014.0
20260905050100 24 271 0.0 1.6 0.00 0.00 0.00 94 1014.0
20260905045555 24 0 0.0 0.0 0.00 0.00 0.00 93 1014.2
20260905045053 24 0 0.0 1.6 0.00 0.00 0.00 93 1014.3
20260905044602 24 0 0.0 1.6 0.00 0.00 0.00 93 1014.3
20260905044053 24 0 0.0 1.6 0.00 0.00 0.00 93 1014.3
20260905043553 24 0 0.0 0.0 0.00 0.00 0.00 93 1014.3
20260905043100 24 0 0.0 1.6 0.00 0.00 0.00 93 1014.3
20260905042552 24 0 0.0 1.6 0.00 0.00 0.00 93 1014.3
20260905042055 25 0 0.0 0.0 0.00 0.00 0.00 92 1014.4
20260905041604 25 0 0.0 0.0 0.00 0.00 0.00 92 1014.4
20260905041052 24 0 0.0 0.0 0.00 0.00 0.00 92 1014.4
20260905040556 25 0 0.0 1.6 0.00 0.00 0.00 92 1014.4
20260905040104 25 0 0.0 1.6 0.00 0.00 0.00 91 1014.4
20260905035553 25 0 0.0 1.6 0.00 0.00 0.00 91 1014.3
20260905035053 25 0 0.0 3.2 0.00 0.00 0.00 91 1014.3
20260905034603 25 0 0.0 3.2 0.00 0.00 0.00 91 1014.4
20260905034053 25 344 0.0 1.6 0.00 0.00 0.00 91 1014.4
20260905033557 25 0 0.0 1.6 0.00 0.00 0.00 91 1014.4
20260905033106 25 0 0.0 1.6 0.00 0.00 0.00 91 1014.5
20260905032553 25 0 0.0 3.2 0.00 0.00 0.00 90 1014.4
20260905032054 25 0 0.0 3.2 0.00 0.00 0.00 90 1014.4
20260905031557 25 0 1.6 3.2 0.00 0.00 0.00 90 1014.4
20260905031053 25 0 0.0 1.6 0.00 0.00 0.00 90 1014.4
20260905030553 25 0 0.0 1.6 0.00 0.00 0.00 90 1014.4
20260905030107 25 0 0.0 1.6 0.00 0.00 0.00 89 1014.3
20260905025553 25 0 0.0 1.6 0.00 0.00 0.00 89 1014.4
20260905025053 25 0 0.0 0.0 0.00 0.00 0.00 89 1014.4
20260905024618 25 0 0.0 0.0 0.00 0.00 0.00 89 1014.2
20260905024054 25 0 0.0 0.0 0.00 0.00 0.00 89 1014.3
20260905023553 25 0 0.0 1.6 0.00 0.00 0.00 89 1014.4
20260905023124 25 0 0.0 1.6 0.00 0.00 0.00 89 1014.4
20260905022552 25 0 0.0 0.0 0.00 0.00 0.00 88 1014.4
20260905022052 25 0 0.0 0.0 0.00 0.00 0.00 88 1014.3
20260905021617 26 0 0.0 0.0 0.00 0.00 0.00 88 1014.2
20260905021052 26 0 0.0 0.0 0.00 0.00 0.00 88 1014.2
20260905020552 26 0 0.0 1.6 0.00 0.00 0.00 88 1014.2
20260905020110 26 0 0.0 1.6 0.00 0.00 0.00 88 1014.2
20260905015555 26 0 0.0 1.6 0.00 0.00 0.00 88 1014.2
20260905015053 26 0 0.0 1.6 0.00 0.00 0.00 87 1014.2
20260905014605 26 0 0.0 1.6 0.00 0.00 0.00 86 1014.2
20260905014054 26 0 0.0 1.6 0.00 0.00 0.00 87 1014.0
20260905013552 26 0 0.0 1.6 0.00 0.00 0.00 87 1014.0
20260905013104 26 0 0.0 0.0 0.00 0.00 0.00 87 1013.9
20260905012554 26 0 0.0 1.6 0.00 0.00 0.00 86 1013.8
20260905012053 27 0 0.0 1.6 0.00 0.00 0.00 86 1013.8
20260905011605 27 0 0.0 0.0 0.00 0.00 0.00 85 1013.8
20260905011054 27 0 0.0 1.6 0.00 0.00 0.00 85 1013.9
20260905010553 27 0 0.0 1.6 0.00 0.00 0.00 84 1013.9
20260905005553 27 0 0.0 1.6 0.00 0.00 0.00 83 1013.9
20260905005053 28 0 0.0 1.6 0.00 0.00 0.00 83 1013.8
20260905004603 28 0 0.0 1.6 0.00 0.00 0.00 83 1013.7
20260905004052 28 0 0.0 1.6 0.00 0.00 0.00 82 1013.7
20260905003553 28 0 0.0 1.6 0.00 0.00 0.00 82 1013.6
20260905003101 28 0 0.0 0.0 0.00 0.00 0.00 82 1013.6
20260905002558 29 0 0.0 1.6 0.00 0.00 0.00 81 1013.6
20260905002053 29 0 0.0 1.6 0.00 0.00 0.00 79 1013.6
20260905001603 30 0 0.0 1.6 0.00 0.00 0.00 79 1013.6
20260905001053 30 0 0.0 1.6 0.00 0.00 0.00 79 1013.5
20260905000554 30 0 0.0 1.6 0.00 0.00 0.00 78 1013.5
20260905000105 30 0 0.0 0.0 0.00 0.00 0.00 78 1013.4
20260904235555 31 0 0.0 1.6 0.00 0.00 0.00 77 1013.5
20260904235052 31 0 0.0 1.6 0.00 0.00 0.00 76 1013.5
20260904234559 31 0 0.0 1.6 0.00 0.00 0.00 74 1013.5
20260904234052 31 0 0.0 1.6 0.00 0.00 0.00 73 1013.4
20260904233554 31 0 0.0 1.6 0.00 0.00 0.00 72 1013.4
20260904233058 32 0 0.0 1.6 0.00 0.00 0.00 69 1013.4
20260904232554 32 0 0.0 3.2 0.00 0.00 0.00 68 1013.4
20260904232053 32 0 0.0 3.2 0.00 0.00 0.00 67 1013.3
20260904231608 32 244 0.0 3.2 0.00 0.00 0.00 65 1013.3
20260904231053 32 263 0.0 3.2 0.00 0.00 0.00 65 1013.3
20260904230555 32 0 0.0 3.2 0.00 0.00 0.00 63 1013.3
20260904230107 32 0 0.0 3.2 0.00 0.00 0.00 63 1013.4
20260904225552 32 0 0.0 3.2 0.00 0.00 0.00 62 1013.4
20260904225056 33 0 0.0 1.6 0.00 0.00 0.00 62 1013.5
20260904224607 33 280 0.0 6.4 0.00 0.00 0.00 60 1013.5
20260904224053 33 0 0.0 6.4 0.00 0.00 0.00 60 1013.5
20260904223554 33 311 3.2 6.4 0.00 0.00 0.00 59 1013.5
20260904223104 33 322 0.0 3.2 0.00 0.00 0.00 60 1013.5
20260904222553 33 0 0.0 4.8 0.00 0.00 0.00 61 1013.5
20260904222053 33 0 1.6 4.8 0.00 0.00 0.00 61 1013.5
20260904221607 33 0 0.0 6.4 0.00 0.00 0.00 59 1013.5
20260904221053 33 0 0.0 6.4 0.00 0.00 0.00 59 1013.5
20260904220553 33 313 0.0 4.8 0.00 0.00 0.00 56 1013.5
20260904220113 33 0 0.0 3.2 0.00 0.00 0.00 58 1013.5
20260904215553 33 213 0.0 3.2 0.00 0.00 0.00 57 1013.5
20260904215053 34 0 0.0 4.8 0.00 0.00 0.00 56 1013.6
20260904214605 34 0 0.0 6.4 0.00 0.00 0.00 56 1013.7
20260904214053 34 0 0.0 9.7 0.00 0.00 0.00 55 1013.8
20260904213552 35 321 4.8 11.3 0.00 0.00 0.00 54 1013.8
20260904213104 35 312 4.8 11.3 0.00 0.00 0.00 55 1013.8
20260904212553 35 332 1.6 14.5 0.00 0.00 0.00 55 1013.8
20260904212054 35 320 4.8 14.5 0.00 0.00 0.00 54 1013.9
20260904211604 35 328 0.0 9.7 0.00 0.00 0.00 54 1014.0
20260904211053 36 0 1.6 9.7 0.00 0.00 0.00 53 1014.1
20260904210553 36 0 1.6 11.3 0.00 0.00 0.00 51 1014.0
20260904210107 36 324 4.8 12.9 0.00 0.00 0.00 50 1014.1
20260904205554 36 359 4.8 12.9 0.00 0.00 0.00 50 1014.2
20260904205052 36 309 3.2 11.3 0.00 0.00 0.00 50 1014.2
20260904204605 37 341 3.2 11.3 0.00 0.00 0.00 50 1014.2
20260904204053 37 270 3.2 9.7 0.00 0.00 0.00 50 1014.3
20260904203554 37 304 3.2 8.0 0.00 0.00 0.00 50 1014.3
20260904203101 37 285 0.0 6.4 0.00 0.00 0.00 51 1014.4
20260904202554 37 0 0.0 9.7 0.00 0.00 0.00 51 1014.4
20260904202052 37 276 0.0 9.7 0.00 0.00 0.00 51 1014.5
20260904201626 37 0 1.6 9.7 0.00 0.00 0.00 51 1014.5
20260904201052 37 271 1.6 6.4 0.00 0.00 0.00 54 1014.5
20260904200553 36 279 1.6 8.0 0.00 0.00 0.00 53 1014.6
20260904200122 36 274 1.6 11.3 0.00 0.00 0.00 53 1014.7
20260904195553 36 288 4.8 11.3 0.00 0.00 0.00 53 1014.7
20260904195053 36 333 3.2 12.9 0.00 0.00 0.00 53 1014.8
20260904194610 36 0 3.2 12.9 0.00 0.00 0.00 52 1015.0
20260904194053 36 274 0.0 14.5 0.00 0.00 0.00 51 1015.0
20260904193553 36 340 4.8 14.5 0.00 0.00 0.00 51 1015.1
20260904193106 36 332 1.6 8.0 0.00 0.00 0.00 54 1015.2
20260904192552 36 0 0.0 6.4 0.00 0.00 0.00 54 1015.2
20260904192053 36 193 1.6 6.4 0.00 0.00 0.00 54 1015.4
20260904191559 36 178 1.6 12.9 0.00 0.00 0.00 53 1015.4
20260904191053 36 0 1.6 12.9 0.00 0.00 0.00 55 1015.5
20260904190553 36 333 4.8 11.3 0.00 0.00 0.00 53 1015.5
20260904190110 36 0 1.6 9.7 0.00 0.00 0.00 55 1015.6
20260904185557 36 158 3.2 12.9 0.00 0.00 0.00 55 1015.7
20260904185056 36 243 1.6 16.1 0.00 0.00 0.00 55 1015.7
20260904184605 36 283 8.0 16.1 0.00 0.00 0.00 55 1015.8
20260904184053 36 0 1.6 9.7 0.00 0.00 0.00 55 1015.8
20260904183556 36 285 3.2 9.7 0.00 0.00 0.00 58 1015.8
20260904183101 35 253 1.6 9.7 0.00 0.00 0.00 58 1015.8
20260904182552 35 255 3.2 9.7 0.00 0.00 0.00 59 1015.9
20260904182053 35 330 1.6 9.7 0.00 0.00 0.00 57 1016.0
20260904181603 35 296 4.8 9.7 0.00 0.00 0.00 56 1016.0
20260904181055 35 304 1.6 9.7 0.00 0.00 0.00 57 1016.1
20260904180554 35 120 0.0 9.7 0.00 0.00 0.00 54 1016.1
20260904175552 35 290 1.6 11.3 0.00 0.00 0.00 59 1016.3
20260904175052 35 300 3.2 11.3 0.00 0.00 0.00 58 1016.3
20260904174601 35 322 3.2 11.3 0.00 0.00 0.00 57 1016.3
20260904174054 35 278 1.6 8.0 0.00 0.00 0.00 59 1016.4
20260904173554 35 0 1.6 11.3 0.00 0.00 0.00 63 1016.5